{"data":{"norad_id":68862,"epoch":"2026-09-20T04:30:02.211840Z","epoch_age_seconds":42611,"freshness":"FRESH","line1":"1 68862U 26094Z   26263.18752560  .00026187  00000+0  80952-3 0  9994","line2":"2 68862  97.2832 276.3732 0001477  89.5539 270.5873 15.33489080 22615","mean_motion":15.3348908,"eccentricity":0.0001477,"inclination_deg":97.2832,"raan_deg":276.3732,"arg_perigee_deg":89.5539,"mean_anomaly_deg":270.5873,"bstar":0.00080952,"rev_number":2261,"period_min":93.903505331776,"perigee_km":464.40123436144,"apogee_km":466.42281874389,"semimajor_km":6843.5490265527,"source":"CELESTRAK","updated_at":"2026-09-20T09:00:44.045091Z"}}